sat.trackr.live / text

‹ back to catalog

YAOGAN-32 02B

NORAD 49384 · 2021-099B

PAYLOAD ACTIVE UNKNOWN

§ Identity

Operator
Country
PRC
Launch date
2021-11-03
Launch site
JSC
Launch vehicle
Mass (kg)
RCS (m²)

External: N2YO · Heavens-Above · Gunter

§ Orbital elements

Epoch: 2026-05-25T05:00:28.962720Z

Period
98.35 min
Inclination
98.2434°
Eccentricity
0.0000981
Mean motion
14.64168956 rev/d
Perigee alt
679.1 km
Apogee alt
680.4 km
Semi-major
7,057.9 km
B*
1.3010e-4
RAAN
279.0031°
Arg perigee
76.5721°
Mean anomaly
283.5590°
Rev number
24,300

§ Raw data

YAOGAN-32 02B1 49384U 21099B   26145.20866855  .00000636  00000+0  13010-3 0  99992 49384  98.2434 279.0031 0000981  76.5721 283.5590 14.64168956243009

JSON: /api/v1/satellites/49384 · /tle

For live sub-satellite position, see the globe view (requires WebGL).

§ Visibility from observer

Set your observer location to see the next 7 days of passes ≥ 10°. The values pass through the URL so the page stays shareable.

No JS? Fill the form by hand. The geolocation button needs JavaScript.